TimeEST,TemperatureF,Dew PointF,Humidity,Sea Level PressureIn,VisibilityMPH,Wind Direction,Wind SpeedMPH,Gust SpeedMPH,PrecipitationIn,Events,Conditions,WindDirDegrees,DateUTC
12:15 AM,12.7,3.2,66,30.00,10.0,NNW,9.2,16.1,N/A,,Mostly Cloudy,340,2013-01-01 05:15:00
12:35 AM,11.7,2.8,68,30.00,10.0,NNW,8.1,-,N/A,,Scattered Clouds,340,2013-01-01 05:35:00
12:56 AM,11.1,2.8,69,30.00,10.0,NNW,6.9,-,N/A,,Clear,340,2013-01-01 05:56:00
1:15 AM,10.4,2.7,71,30.00,10.0,NNW,8.1,-,N/A,,Clear,340,2013-01-01 06:15:00
1:35 AM,10.0,2.1,70,30.00,10.0,NNW,5.8,-,N/A,,Clear,330,2013-01-01 06:35:00
1:55 AM,9.3,2.5,74,30.00,10.0,NNW,5.8,-,N/A,,Clear,330,2013-01-01 06:55:00
2:15 AM,9.0,2.8,76,30.01,10.0,North,6.9,-,N/A,,Clear,360,2013-01-01 07:15:00
2:36 AM,8.4,2.1,76,30.02,10.0,North,5.8,-,N/A,,Clear,10,2013-01-01 07:36:00
3:15 AM,7.2,1.0,76,30.04,10.0,Calm,Calm,-,N/A,,Clear,0,2013-01-01 08:15:00
3:35 AM,5.5,0.5,80,30.04,10.0,Calm,Calm,-,N/A,,Clear,0,2013-01-01 08:35:00
3:55 AM,5.5,1.0,82,30.05,10.0,Calm,Calm,-,N/A,,Clear,0,2013-01-01 08:55:00
4:15 AM,4.8,0.1,81,30.04,10.0,Calm,Calm,-,N/A,,Clear,0,2013-01-01 09:15:00
4:35 AM,2.3,-0.8,87,30.05,10.0,Calm,Calm,-,N/A,,Clear,0,2013-01-01 09:35:00
4:55 AM,0.5,-2.0,89,30.05,10.0,Calm,Calm,-,N/A,,Clear,0,2013-01-01 09:55:00
5:15 AM,0.5,-1.3,92,30.05,10.0,Calm,Calm,-,N/A,,Clear,0,2013-01-01 10:15:00
5:35 AM,-0.0,-2.2,91,30.06,10.0,Calm,Calm,-,N/A,,Clear,0,2013-01-01 10:35:00
5:55 AM,-1.5,-4.0,89,30.06,10.0,Calm,Calm,-,N/A,,Clear,0,2013-01-01 10:55:00
6:16 AM,-1.8,-4.2,90,30.07,10.0,Calm,Calm,-,N/A,,Clear,0,2013-01-01 11:16:00
6:35 AM,0.3,-1.8,91,30.07,10.0,Calm,Calm,-,N/A,,Clear,0,2013-01-01 11:35:00
6:55 AM,-1.5,-3.8,90,30.07,10.0,Calm,Calm,-,N/A,,Clear,0,2013-01-01 11:55:00
7:15 AM,-1.7,-4.2,89,30.07,10.0,Calm,Calm,-,N/A,,Clear,0,2013-01-01 12:15:00
7:35 AM,-2.0,-4.9,88,30.08,10.0,Calm,Calm,-,N/A,,Clear,0,2013-01-01 12:35:00
7:55 AM,-4.5,-7.4,87,30.07,10.0,Calm,Calm,-,N/A,,Clear,0,2013-01-01 12:55:00
8:15 AM,-4.5,-7.8,86,30.07,10.0,Calm,Calm,-,N/A,,Clear,0,2013-01-01 13:15:00
8:35 AM,-4.2,-7.1,87,30.07,10.0,Calm,Calm,-,N/A,,Clear,0,2013-01-01 13:35:00
8:55 AM,-3.5,-6.5,87,30.06,10.0,Calm,Calm,-,N/A,,Clear,0,2013-01-01 13:55:00
9:15 AM,-3.5,-6.5,87,30.06,10.0,Calm,Calm,-,N/A,,Scattered Clouds,0,2013-01-01 14:15:00
9:35 AM,0.1,-2.7,88,30.06,10.0,Calm,Calm,-,N/A,,Mostly Cloudy,0,2013-01-01 14:35:00
10:15 AM,8.8,5.5,87,30.06,10.0,Calm,Calm,-,N/A,,Overcast,0,2013-01-01 15:15:00
10:35 AM,12.7,5.9,74,30.07,10.0,Calm,Calm,-,N/A,,Overcast,0,2013-01-01 15:35:00
10:55 AM,12.2,5.7,75,30.06,10.0,Calm,Calm,-,N/A,,Overcast,0,2013-01-01 15:55:00
11:15 AM,13.8,7.3,75,30.05,10.0,Calm,Calm,-,N/A,,Scattered Clouds,0,2013-01-01 16:15:00
11:35 AM,17.8,10.8,74,30.04,10.0,SW,3.5,-,N/A,,Mostly Cloudy,220,2013-01-01 16:35:00
12:16 PM,20.8,13.1,72,30.02,10.0,WNW,6.9,-,N/A,,Overcast,290,2013-01-01 17:16:00
12:35 PM,21.7,13.1,69,30.00,10.0,West,4.6,-,N/A,,Overcast,260,2013-01-01 17:35:00
12:55 PM,22.3,11.3,63,29.99,10.0,WSW,9.2,21.9,N/A,,Overcast,250,2013-01-01 17:55:00
1:15 PM,22.6,11.5,62,29.98,10.0,WSW,9.2,-,N/A,,Overcast,240,2013-01-01 18:15:00
1:35 PM,22.6,11.3,62,29.97,10.0,WSW,10.4,16.1,N/A,,Overcast,250,2013-01-01 18:35:00
1:56 PM,22.8,11.3,61,29.96,10.0,WSW,10.4,18.4,N/A,,Overcast,250,2013-01-01 18:56:00
2:15 PM,22.8,11.1,61,29.95,10.0,WSW,9.2,-,N/A,,Overcast,250,2013-01-01 19:15:00
2:35 PM,23.0,11.5,61,29.95,10.0,West,8.1,-,N/A,,Overcast,260,2013-01-01 19:35:00
2:56 PM,23.9,11.1,58,29.94,10.0,West,8.1,16.1,N/A,,Overcast,260,2013-01-01 19:56:00
3:15 PM,23.2,10.6,59,29.94,10.0,WSW,6.9,17.3,N/A,,Scattered Clouds,250,2013-01-01 20:15:00
3:35 PM,22.8,10.4,59,29.95,10.0,WSW,10.4,19.6,N/A,,Clear,240,2013-01-01 20:35:00
3:55 PM,21.9,10.8,62,29.95,10.0,WSW,8.1,-,N/A,,Clear,250,2013-01-01 20:55:00
4:15 PM,21.2,10.9,65,29.95,10.0,WSW,5.8,-,N/A,,Scattered Clouds,250,2013-01-01 21:15:00
4:35 PM,20.3,10.9,67,29.95,10.0,West,5.8,-,N/A,,Scattered Clouds,270,2013-01-01 21:35:00
4:55 PM,20.3,10.9,67,29.96,10.0,West,3.5,-,N/A,,Mostly Cloudy,260,2013-01-01 21:55:00
5:15 PM,19.4,10.2,68,29.96,10.0,West,5.8,-,N/A,,Scattered Clouds,260,2013-01-01 22:15:00
5:36 PM,19.9,10.4,67,29.96,10.0,West,4.6,-,N/A,,Mostly Cloudy,260,2013-01-01 22:36:00
5:55 PM,20.3,11.3,68,29.96,10.0,West,4.6,-,N/A,,Overcast,260,2013-01-01 22:55:00
6:15 PM,20.7,12.0,69,29.95,10.0,West,6.9,-,N/A,,Overcast,280,2013-01-01 23:15:00
6:36 PM,20.8,12.6,70,29.95,10.0,WNW,5.8,-,N/A,Snow,Light Snow,290,2013-01-01 23:36:00
6:55 PM,20.8,13.1,72,29.95,10.0,WNW,6.9,-,N/A,,Overcast,290,2013-01-01 23:55:00
7:15 PM,20.8,13.1,72,29.95,10.0,WNW,9.2,-,N/A,,Overcast,300,2013-01-02 00:15:00
7:36 PM,20.3,12.7,73,29.95,10.0,WNW,4.6,-,N/A,Snow,Light Snow,300,2013-01-02 00:36:00
7:55 PM,19.9,12.2,72,29.95,10.0,WNW,8.1,-,N/A,,Overcast,290,2013-01-02 00:55:00
8:15 PM,19.4,12.0,73,29.94,10.0,West,8.1,-,N/A,,Mostly Cloudy,260,2013-01-02 01:15:00
8:35 PM,20.1,11.8,70,29.94,10.0,West,6.9,17.3,N/A,,Mostly Cloudy,270,2013-01-02 01:35:00
8:55 PM,20.3,10.0,65,29.93,10.0,West,9.2,-,N/A,,Mostly Cloudy,280,2013-01-02 01:55:00
9:15 PM,19.8,9.3,64,29.93,10.0,West,5.8,-,N/A,,Scattered Clouds,260,2013-01-02 02:15:00
9:35 PM,19.9,9.1,63,29.93,10.0,West,5.8,-,N/A,,Mostly Cloudy,280,2013-01-02 02:35:00
9:55 PM,19.4,8.6,63,29.92,10.0,West,8.1,-,N/A,,Mostly Cloudy,260,2013-01-02 02:55:00
10:15 PM,19.0,8.1,62,29.92,10.0,WSW,4.6,-,N/A,,Clear,250,2013-01-02 03:15:00
10:35 PM,18.7,7.9,63,29.91,10.0,West,5.8,-,N/A,,Clear,260,2013-01-02 03:35:00
10:56 PM,18.3,8.4,65,29.91,10.0,WSW,5.8,-,N/A,,Mostly Cloudy,250,2013-01-02 03:56:00
11:15 PM,17.8,7.7,65,29.92,10.0,WSW,6.9,-,N/A,,Scattered Clouds,250,2013-01-02 04:15:00
11:35 PM,17.4,8.4,68,29.92,10.0,WSW,4.6,-,N/A,,Clear,250,2013-01-02 04:35:00
11:56 PM,17.4,8.2,67,29.92,10.0,West,4.6,-,N/A,,Clear,260,2013-01-02 04:56:00